Galesburg, IL

2:40 AM CDT on September 22, 2017 (GMT -0500)
Galesburg Municipal

Weather History for KGBG - April, 2012

Change the Weather History Date:

Wednesday, April 4, 2012

  Actual Average Record
Temperature  
Mean Temperature 60 °F -  
Max Temperature 71 °F 54 °F 80 °F (2005)
Min Temperature 48 °F 34 °F 11 °F (1975)
Degree Days  
Heating Degree Days 6    
Growing Degree Days 10 (Base 50)    
Moisture  
Dew Point 29 °F    
Average Humidity 35    
Maximum Humidity 63    
Minimum Humidity 16    
Precipitation  
Precipitation 0.00 in - - ()
Sea Level Pressure  
Sea Level Pressure 29.88 in    
Wind  
Wind Speed 15 mph (NE)    
Max Wind Speed 21 mph    
Max Gust Speed 30 mph    
Visibility 10 miles    
Events      
Averages and records for this station are not official NWS values.
T = Trace of Precipitation, MM = Missing Value Source: NWS Daily Summary

Daily Weather History Graph

Daily Weather History Graph

Search for Another Location

Airport or City:

Trip Planner

Search our weather history database for the weather conditions in past years. The results will help you decide how hot, cold, wet, or windy it might be!

Date:

Astronomy

Apr. 04, 2012 Rise Set
Actual Time 6:39 AM CDT 7:30 PM CDT
Civil Twilight 6:11 AM CDT 7:58 PM CDT
Nautical Twilight 5:38 AM CDT 8:31 PM CDT
Astronomical Twilight 5:04 AM CDT 9:05 PM CDT
Moon 5:23 PM CDT (4/4) 5:02 AM CDT (4/4)
Length of Visible Light 13h 46m
Length of Day
12h 50m
Waxing Gibbous, 94% of the Moon is Illuminated
Apr 4
Waxing Gibbous
Apr 6
Full
Apr 13
Last Quarter
Apr 21
New
Apr 29
First Quarter

Hourly Weather History & Observations

Time (CDT) Temp. Dew Point Humidity Pressure Visibility Wind Dir Wind Speed Gust Speed Precip Events Conditions
12:15 AM 57.7 °F 43.3 °F 59% 29.88 in 10.0 mi NNE 16.1 mph 28.8 mph N/A   Clear
12:35 AM 56.8 °F 42.8 °F 59% 29.88 in 10.0 mi NNE 18.4 mph 26.5 mph N/A   Clear
12:55 AM 55.4 °F 40.1 °F 56% 29.88 in 10.0 mi NNE 20.7 mph 25.3 mph N/A   Clear
1:15 AM 54.9 °F 39.7 °F 57% 29.90 in 10.0 mi NNE 11.5 mph 23.0 mph N/A   Scattered Clouds
1:35 AM 54.1 °F 41.0 °F 61% 29.90 in 10.0 mi NNE 15.0 mph - N/A   Mostly Cloudy
1:55 AM 54.0 °F 40.8 °F 61% 29.91 in 10.0 mi NNE 11.5 mph 17.3 mph N/A   Mostly Cloudy
2:15 AM 53.2 °F 40.8 °F 63% 29.91 in 10.0 mi NE 8.1 mph - N/A   Scattered Clouds
2:35 AM 52.9 °F 38.7 °F 58% 29.91 in 10.0 mi NE 11.5 mph 20.7 mph N/A   Clear
2:55 AM 51.8 °F 37.4 °F 58% 29.91 in 10.0 mi NNE 15.0 mph 18.4 mph N/A   Scattered Clouds
3:15 AM 51.8 °F 36.7 °F 56% 29.90 in 10.0 mi NNE 17.3 mph 21.9 mph N/A   Scattered Clouds
3:35 AM 51.8 °F 35.8 °F 54% 29.90 in 10.0 mi NNE 15.0 mph - N/A   Clear
3:55 AM 51.4 °F 35.4 °F 54% 29.89 in 10.0 mi NE 13.8 mph 20.7 mph N/A   Clear
4:15 AM 50.9 °F 35.2 °F 55% 29.89 in 10.0 mi NNE 12.7 mph 19.6 mph N/A   Clear
4:35 AM 50.4 °F 35.2 °F 56% 29.89 in 10.0 mi NNE 11.5 mph 19.6 mph N/A   Clear
4:55 AM 50.2 °F 35.1 °F 56% 29.89 in 10.0 mi NNE 12.7 mph - N/A   Clear
5:15 AM 50.0 °F 34.7 °F 56% 29.89 in 10.0 mi NNE 13.8 mph - N/A   Clear
5:35 AM 49.5 °F 34.3 °F 56% 29.89 in 10.0 mi NNE 13.8 mph 19.6 mph N/A   Clear
5:55 AM 49.1 °F 34.7 °F 58% 29.89 in 10.0 mi NNE 13.8 mph - N/A   Clear
6:15 AM 49.1 °F 34.7 °F 58% 29.89 in 10.0 mi NNE 13.8 mph 19.6 mph N/A   Clear
6:35 AM 48.7 °F 34.7 °F 58% 29.89 in 10.0 mi NNE 12.7 mph - N/A   Clear
6:55 AM 48.7 °F 33.8 °F 56% 29.90 in 10.0 mi NNE 13.8 mph 20.7 mph N/A   Clear
7:15 AM 49.5 °F 32.5 °F 52% 29.90 in 10.0 mi NNE 15.0 mph - N/A   Clear
7:35 AM 50.0 °F 31.8 °F 50% 29.90 in 10.0 mi NNE 15.0 mph 24.2 mph N/A   Clear
7:55 AM 51.3 °F 29.7 °F 44% 29.90 in 10.0 mi NNE 17.3 mph 25.3 mph N/A   Clear
8:15 AM 52.9 °F 24.4 °F 33% 29.90 in 10.0 mi NE 17.3 mph 29.9 mph N/A   Clear
8:35 AM 54.1 °F 23.9 °F 31% 29.90 in 10.0 mi NNE 17.3 mph 27.6 mph N/A   Clear
8:55 AM 55.4 °F 23.0 °F 29% 29.90 in 10.0 mi NE 17.3 mph 23.0 mph N/A   Clear
9:15 AM 57.2 °F 25.3 °F 29% 29.90 in 10.0 mi NNE 17.3 mph 23.0 mph N/A   Clear
9:35 AM 58.3 °F 27.3 °F 31% 29.90 in 10.0 mi NE 18.4 mph 25.3 mph N/A   Scattered Clouds
9:55 AM 58.1 °F 27.0 °F 30% 29.91 in 10.0 mi NNE 17.3 mph 26.5 mph N/A   Overcast
10:15 AM 59.4 °F 28.0 °F 30% 29.92 in 10.0 mi NE 16.1 mph 21.9 mph N/A   Overcast
10:35 AM 60.8 °F 29.3 °F 30% 29.93 in 10.0 mi NE 16.1 mph 21.9 mph N/A   Overcast
10:55 AM 61.3 °F 28.8 °F 29% 29.94 in 10.0 mi NE 16.1 mph 19.6 mph N/A   Overcast
11:15 AM 63.5 °F 29.7 °F 28% 29.93 in 10.0 mi NNE 17.3 mph - N/A   Overcast
11:35 AM 64.0 °F 30.2 °F 28% 29.92 in 10.0 mi NE 13.8 mph - N/A   Overcast
11:55 AM 65.1 °F 31.8 °F 29% 29.91 in 10.0 mi NE 12.7 mph 19.6 mph N/A   Scattered Clouds
12:15 PM 66.4 °F 32.5 °F 28% 29.91 in 10.0 mi NE 11.5 mph 19.6 mph N/A   Clear
12:35 PM 66.2 °F 32.4 °F 28% 29.91 in 10.0 mi NNE 16.1 mph 23.0 mph N/A   Mostly Cloudy
12:55 PM 65.1 °F 31.6 °F 29% 29.90 in 10.0 mi NNE 15.0 mph - N/A   Mostly Cloudy
1:15 PM 66.2 °F 33.1 °F 29% 29.89 in 10.0 mi NE 9.2 mph - N/A   Mostly Cloudy
1:35 PM 68.4 °F 31.6 °F 26% 29.89 in 10.0 mi NNE 15.0 mph 20.7 mph N/A   Scattered Clouds
1:55 PM 68.9 °F 31.5 °F 25% 29.87 in 10.0 mi NNE 16.1 mph 20.7 mph N/A   Scattered Clouds
2:15 PM 68.2 °F 31.1 °F 25% 29.87 in 10.0 mi NE 15.0 mph 19.6 mph N/A   Overcast
2:35 PM 68.4 °F 29.8 °F 24% 29.86 in 10.0 mi ENE 13.8 mph 18.4 mph N/A   Mostly Cloudy
2:55 PM 70.5 °F 29.8 °F 22% 29.86 in 10.0 mi NE 17.3 mph 21.9 mph N/A   Mostly Cloudy
3:15 PM 70.0 °F 31.1 °F 24% 29.84 in 10.0 mi NNE 17.3 mph 25.3 mph N/A   Scattered Clouds
3:35 PM 70.7 °F 28.2 °F 21% 29.83 in 10.0 mi NE 12.7 mph 26.5 mph N/A   Clear
3:55 PM 70.7 °F 23.2 °F 17% 29.82 in 10.0 mi NE 17.3 mph 21.9 mph N/A   Clear
4:15 PM 71.1 °F 22.1 °F 16% 29.81 in 10.0 mi NE 18.4 mph 24.2 mph N/A   Clear
4:35 PM 71.4 °F 22.6 °F 16% 29.81 in 10.0 mi NNE 18.4 mph 24.2 mph N/A   Clear
4:55 PM 69.4 °F 24.6 °F 19% 29.82 in 10.0 mi NE 19.6 mph 23.0 mph N/A   Clear
5:15 PM 68.0 °F 21.2 °F 17% 29.82 in 10.0 mi NE 18.4 mph - N/A   Clear
5:35 PM 68.2 °F 19.6 °F 16% 29.82 in 10.0 mi NE 17.3 mph 24.2 mph N/A   Clear
5:55 PM 66.9 °F 18.7 °F 16% 29.82 in 10.0 mi NE 16.1 mph - N/A   Clear
6:15 PM 66.2 °F 18.5 °F 16% 29.82 in 10.0 mi NE 12.7 mph 23.0 mph N/A   Clear
6:35 PM 64.6 °F 19.2 °F 18% 29.83 in 10.0 mi NE 19.6 mph - N/A   Clear
6:55 PM 63.5 °F 20.7 °F 19% 29.83 in 10.0 mi NE 16.1 mph 24.2 mph N/A   Clear
7:15 PM 62.6 °F 18.5 °F 18% 29.84 in 10.0 mi NE 18.4 mph 27.6 mph N/A   Clear
7:35 PM 61.2 °F 20.7 °F 21% 29.84 in 10.0 mi NE 16.1 mph 23.0 mph N/A   Clear
7:55 PM 60.3 °F 21.2 °F 22% 29.85 in 10.0 mi NE 12.7 mph - N/A   Clear
8:35 PM 58.5 °F 19.9 °F 22% 29.86 in 10.0 mi NE 13.8 mph 21.9 mph N/A   Clear
8:55 PM 57.6 °F 18.9 °F 22% 29.86 in 10.0 mi NE 16.1 mph 21.9 mph N/A   Clear
9:15 PM 56.5 °F 17.6 °F 22% 29.87 in 10.0 mi NE 12.7 mph 20.7 mph N/A   Clear
9:35 PM 54.9 °F 18.7 °F 24% 29.87 in 10.0 mi NNE 15.0 mph 18.4 mph N/A   Clear
9:55 PM 53.6 °F 20.3 °F 27% 29.87 in 10.0 mi NNE 12.7 mph - N/A   Clear
10:15 PM 52.9 °F 17.2 °F 25% 29.88 in 10.0 mi NNE 17.3 mph 21.9 mph N/A   Clear
10:35 PM 52.2 °F 18.3 °F 26% 29.88 in 10.0 mi NNE 12.7 mph - N/A   Clear
10:55 PM 51.3 °F 19.2 °F 28% 29.88 in 10.0 mi NE 15.0 mph 21.9 mph N/A   Clear
11:15 PM 50.9 °F 18.0 °F 27% 29.89 in 10.0 mi NE 13.8 mph 18.4 mph N/A   Clear
11:35 PM 50.4 °F 18.3 °F 28% 29.89 in 10.0 mi NE 16.1 mph 20.7 mph N/A   Clear
11:55 PM 50.2 °F 19.0 °F 29% 29.89 in 10.0 mi NE 16.1 mph 21.9 mph N/A   Clear